This demonstration page uses our WeatherBlox Daily Observations layout. Learn more.

Left ArrowRight Arrow

39.01783, -85.05884

Hourly Observations for March 16, 2022

Temp ( °F °C ) Dew Point ( °F °C ) Humidity (%) Winds ( mph kmh ) Pressure ( in mb ) Visibility ( mi km ) Precip ( " mm )
12:52 am 00:52 Clear 52 11.1 38 3.3 59 59 S 3 6 30.14 1021 10 16 0.00 0.00
1:52 am 01:52 Clear 47 8.3 40 4.4 77 77 S 3 6 30.13 1020 10 16 0.00 0.00
2:52 am 02:52 Clear 48 8.9 38 3.3 68 68 Calm 30.11 1020 10 16 0.00 0.00
3:52 am 03:52 Clear 47 8.3 36 2.2 66 66 NE 6 9 30.08 1019 10 16 0.00 0.00
4:52 am 04:52 Clear 43 6.1 36 2.2 76 76 ESE 3 6 30.08 1019 10 16 0.00 0.00
5:52 am 05:52 Clear 45 7.2 35 1.7 68 68 Calm 30.09 1019 10 16 0.00 0.00
6:52 am 06:52 Clear 49 9.4 36 2.2 61 61 Calm 30.10 1019 10 16 0.00 0.00
7:52 am 07:52 Mostly Sunny 46 7.8 35 1.7 66 66 ESE 3 6 30.11 1020 9 14 0.00 0.00
8:52 am 08:52 Sunny 49 9.4 37 2.8 64 64 Calm 30.11 1020 10 16 0.00 0.00
9:52 am 09:52 Partly Cloudy 55 12.8 39 3.9 55 55 SE 5 7 30.11 1020 10 16 0.00 0.00
10:52 am 10:52 Mostly Cloudy 60 15.6 36 2.2 41 41 SE 10 17 30.10 1019 10 16 0.00 0.00
11:52 am 11:52 Mostly Cloudy 63 17.2 37 2.8 38 38 SE 12 19 30.09 1019 10 16 0.00 0.00
12:52 pm 12:52 Mostly Cloudy 65 18.3 38 3.3 37 37 SSE 10 17 30.06 1018 10 16 0.00 0.00
1:52 pm 13:52 Mostly Cloudy 66 18.9 36 2.2 33 33 SE 13 20 30.04 1017 10 16 0.00 0.00
2:52 pm 14:52 Mostly Cloudy 69 20.6 38 3.3 32 32 SSE 13 20 29.98 1015 10 16 0.00 0.00
3:52 pm 15:52 Mostly Cloudy 69 20.6 36 2.2 30 30 SE 8 13 29.95 1014 10 16 0.00 0.00
4:52 pm 16:52 Mostly Cloudy 69 20.6 38 3.3 32 32 SE 8 13 29.93 1014 10 16 0.00 0.00
5:52 pm 17:52 Mostly Cloudy 68 20 37 2.8 32 32 SSE 3 6 29.92 1013 10 16 0.00 0.00
6:52 pm 18:52 Partly Cloudy 65 18.3 37 2.8 36 36 SSE 5 7 29.91 1013 10 16 0.00 0.00
7:52 pm 19:52 Mostly Cloudy 61 16.1 38 3.3 43 43 SE 8 13 29.92 1013 10 16 0.00 0.00
8:52 pm 20:52 Mostly Cloudy 63 17.2 38 3.3 40 40 ESE 3 6 29.93 1013 10 16 0.00 0.00
9:52 pm 21:52 Mostly Cloudy 56 13.3 42 5.6 60 60 SSE 7 11 29.94 1014 10 16 0.00 0.00
10:52 pm 22:52 Mostly Cloudy 54 12.2 45 7.2 72 72 SSE 7 11 29.93 1014 10 16 0.00 0.00
11:52 pm 23:52 Partly Cloudy 55 12.8 44 6.7 67 67 S 5 7 29.92 1013 10 16 0.00 0.00

Powered by AerisWeather